Dades meteomassalio
Diari Summary for Maig 9, 2017 Units:  English    Metric   Both
« Previous Day
Next Day »
Diari Semanal Mensual Anual Personalitzat
  Maxima: Minima: Mijana:
Temperatura: TemperatureC °F 8.4 °F 16.5 °F
Rosada: DewpointC °F -0.3 °F 7.1 °F
Humitat: Humidity % 35 % 55 %
Velocitat del vent: WindSpeedKMH mph 0.0 mph 7.7 mph
Racha vent: WindSpeedGustKMH mph - -
Vent:- - ESE
Pressio: PressurehPa in 1003.6 in -
Pluja: 1.3 in    
Historical Graphs
 
 
Tabular Data for Maig 9, 2017
Time Temperature Dew Point Pressure Wind Wind Speed Wind Gust Humidity Rainfall Rate (Hourly) solar Conditions
TemperatureC °F DewpointC °F PressurehPa in Calm     Humidity % HourlyPrecipMM in SolarRadiationWatts/m^2 W/m2 Conditions
00:03 15.6 °F 0.1 °F 1014.1 in Calm     35 % 0.0 in 0.0 W/m2 CLR
00:08 15.4 °F 0.1 °F 1014.1 in Calm     35 % 0.0 in 0.0 W/m2 CLR
00:13 15.3 °F -0.1 °F 1014.1 in Calm     35 % 0.0 in 0.0 W/m2 CLR
00:18 15.3 °F -0.1 °F 1014.1 in Calm     35 % 0.0 in 0.0 W/m2 CLR
00:23 15.2 °F 0.6 °F 1014.1 in Calm     37 % 0.0 in 0.0 W/m2 CLR
00:28 14.9 °F 0.7 °F 1014.1 in Calm     38 % 0.0 in 0.0 W/m2 CLR
00:33 14.6 °F 0.7 °F 1014.1 in Calm     39 % 0.0 in 0.0 W/m2 CLR
00:38 14.3 °F 0.6 °F 1014.1 in Calm     39 % 0.0 in 0.0 W/m2 CLR
00:43 14.1 °F 0.3 °F 1014.1 in Calm     39 % 0.0 in 0.0 W/m2 CLR
00:48 13.9 °F 0.8 °F 1014.1 in Calm     41 % 0.0 in 0.0 W/m2 CLR
00:53 13.6 °F 0.6 °F 1014.1 in Calm     41 % 0.0 in 0.0 W/m2 CLR
00:58 13.3 °F 0.3 °F 1014.1 in Calm     41 % 0.0 in 0.0 W/m2 CLR
01:03 13.1 °F 0.4 °F 1014.1 in Calm     42 % 0.0 in 0.0 W/m2 CLR
01:08 12.9 °F 0.6 °F 1014.1 in Calm     43 % 0.0 in 0.0 W/m2 CLR
01:13 12.8 °F 0.5 °F 1014.1 in Calm     43 % 0.0 in 0.0 W/m2 CLR
01:18 12.6 °F 0.0 °F 1014.1 in Calm     42 % 0.0 in 0.0 W/m2 CLR
01:23 12.6 °F 0.6 °F 1014.1 in Calm     44 % 0.0 in 0.0 W/m2 CLR
01:28 12.4 °F 0.2 °F 1014.1 in Calm     43 % 0.0 in 0.0 W/m2 CLR
01:33 12.6 °F -0.1 °F 1014.1 in Calm     42 % 0.0 in 0.0 W/m2 CLR
01:38 12.6 °F 0.7 °F 1014.1 in Calm     44 % 0.0 in 0.0 W/m2 CLR
01:43 12.4 °F 0.5 °F 1014.1 in Calm     44 % 0.0 in 0.0 W/m2 CLR
01:48 12.2 °F 0.3 °F 1014.1 in Calm     44 % 0.0 in 0.0 W/m2 CLR
01:53 12.0 °F 0.4 °F 1014.1 in Calm     45 % 0.0 in 0.0 W/m2 CLR
01:58 11.8 °F 0.2 °F 1014.1 in Calm     45 % 0.0 in 0.0 W/m2 CLR
02:03 11.7 °F 0.1 °F 1014.1 in Calm     45 % 0.0 in 0.0 W/m2 CLR
02:08 11.6 °F 0.0 °F 1014.1 in Calm     45 % 0.0 in 0.0 W/m2 CLR
02:13 11.6 °F 0.0 °F 1014.1 in Calm     45 % 0.0 in 0.0 W/m2 CLR
02:18 11.4 °F 0.2 °F 1014.1 in Calm     46 % 0.0 in 0.0 W/m2 CLR
02:23 11.3 °F 0.1 °F 1013.8 in Calm     46 % 0.0 in 0.0 W/m2 CLR
02:28 11.2 °F 0.3 °F 1013.8 in Calm     47 % 0.0 in 0.0 W/m2 CLR
02:33 11.1 °F 0.2 °F 1013.8 in Calm     47 % 0.0 in 0.0 W/m2 CLR
02:38 10.9 °F 0.1 °F 1013.8 in Calm     47 % 0.0 in 0.0 W/m2 CLR
02:43 10.8 °F -0.1 °F 1013.8 in Calm     47 % 0.0 in 0.0 W/m2 CLR
02:48 10.7 °F 0.2 °F 1013.8 in Calm     48 % 0.0 in 0.0 W/m2 CLR
02:53 10.6 °F 0.3 °F 1013.8 in Calm     49 % 0.0 in 0.0 W/m2 CLR
02:58 10.5 °F 0.2 °F 1013.8 in Calm     49 % 0.0 in 0.0 W/m2 CLR
03:03 10.3 °F 0.1 °F 1013.8 in Calm     49 % 0.0 in 0.0 W/m2 CLR
03:08 10.3 °F 0.1 °F 1013.8 in Calm     49 % 0.0 in 0.0 W/m2 CLR
03:13 10.3 °F -0.2 °F 1013.8 in Calm     48 % 0.0 in 0.0 W/m2 CLR
03:18 10.3 °F -0.3 °F 1013.8 in Calm     48 % 0.0 in 0.0 W/m2 CLR
03:23 10.3 °F 0.0 °F 1013.8 in Calm     49 % 0.0 in 0.0 W/m2 CLR
03:28 10.2 °F 0.2 °F 1013.8 in Calm     50 % 0.0 in 0.0 W/m2 CLR
03:33 10.1 °F 0.1 °F 1013.4 in Calm     50 % 0.0 in 0.0 W/m2 CLR
03:38 9.8 °F 0.2 °F 1013.4 in Calm     51 % 0.0 in 0.0 W/m2 CLR
03:43 9.7 °F 0.1 °F 1013.4 in Calm     51 % 0.0 in 0.0 W/m2 CLR
03:48 9.7 °F 0.0 °F 1013.4 in Calm     51 % 0.0 in 0.0 W/m2 CLR
03:53 9.6 °F -0.1 °F 1013.4 in Calm     51 % 0.0 in 0.0 W/m2 CLR
03:58 9.6 °F -0.1 °F 1013.1 in Calm     51 % 0.0 in 0.0 W/m2 CLR
04:03 9.6 °F -0.1 °F 1013.1 in Calm     51 % 0.0 in 0.0 W/m2 CLR
04:09 9.6 °F -0.1 °F 1013.1 in Calm     51 % 0.0 in 0.0 W/m2 CLR
04:14 9.6 °F -0.1 °F 1013.1 in Calm     51 % 0.0 in 0.0 W/m2 CLR
04:19 9.7 °F 0.1 °F 1013.1 in Calm     51 % 0.0 in 0.0 W/m2 CLR
04:24 9.7 °F 0.1 °F 1013.1 in Calm     51 % 0.0 in 0.0 W/m2 CLR
04:28 9.7 °F 0.3 °F 1013.1 in Calm     52 % 0.0 in 0.0 W/m2 CLR
04:34 9.5 °F 0.4 °F 1013.1 in Calm     53 % 0.0 in 0.0 W/m2 CLR
04:39 9.4 °F 0.3 °F 1013.1 in Calm     53 % 0.0 in 0.0 W/m2 CLR
04:43 9.3 °F 0.2 °F 1013.1 in Calm     53 % 0.0 in 0.0 W/m2 CLR
04:49 9.2 °F 0.1 °F 1013.1 in Calm     53 % 0.0 in 0.0 W/m2 CLR
04:54 9.1 °F 0.3 °F 1012.8 in Calm     54 % 0.0 in 0.0 W/m2 CLR
04:59 9.1 °F 0.2 °F 1012.8 in Calm     54 % 0.0 in 0.0 W/m2 CLR
05:04 9.0 °F 0.2 °F 1012.8 in Calm     54 % 0.0 in 0.0 W/m2 CLR
05:09 9.1 °F 0.2 °F 1012.8 in Calm     54 % 0.0 in 0.0 W/m2 CLR
05:14 9.2 °F 0.3 °F 1012.8 in Calm     54 % 0.0 in 0.0 W/m2 CLR
05:19 9.2 °F 0.4 °F 1012.8 in Calm     54 % 0.0 in 0.0 W/m2 CLR
05:24 9.2 °F 0.4 °F 1012.8 in Calm     54 % 0.0 in 0.0 W/m2 CLR
05:29 9.2 °F 0.3 °F 1012.8 in Calm     54 % 0.0 in 0.0 W/m2 CLR
05:34 9.1 °F 0.3 °F 1012.8 in Calm     54 % 0.0 in 0.0 W/m2 CLR
05:39 9.2 °F 0.4 °F 1012.8 in Calm     54 % 0.0 in 0.0 W/m2 CLR
05:44 9.2 °F 0.4 °F 1012.8 in Calm     54 % 0.0 in 0.0 W/m2 CLR
05:49 9.3 °F 0.4 °F 1012.8 in Calm     54 % 0.0 in 0.0 W/m2 CLR
05:54 9.3 °F 0.5 °F 1012.8 in Calm     54 % 0.0 in 0.0 W/m2 CLR
05:59 9.2 °F 0.6 °F 1012.8 in Calm     55 % 0.0 in 0.0 W/m2 CLR
06:04 9.1 °F 0.6 °F 1012.8 in Calm     55 % 0.0 in 0.0 W/m2 CLR
06:09 9.1 °F 0.5 °F 1012.8 in Calm     55 % 0.0 in 0.0 W/m2 CLR
06:14 9.0 °F 0.7 °F 1012.8 in Calm     56 % 0.0 in 0.0 W/m2 CLR
06:19 8.9 °F 0.6 °F 1012.4 in Calm     56 % 0.0 in 0.0 W/m2 CLR
06:24 8.9 °F 0.6 °F 1012.4 in Calm     56 % 0.0 in 0.0 W/m2 CLR
06:29 8.9 °F 0.6 °F 1012.4 in Calm     56 % 0.0 in 0.0 W/m2 CLR
06:34 8.9 °F 0.6 °F 1012.4 in Calm     56 % 0.0 in 0.0 W/m2 CLR
06:39 8.8 °F 0.8 °F 1012.4 in Calm     57 % 0.0 in 5.0 W/m2 OVC
06:44 8.7 °F 0.9 °F 1012.4 in Calm     58 % 0.0 in 5.0 W/m2 OVC
06:49 8.6 °F 0.8 °F 1012.4 in Calm     58 % 0.0 in 7.0 W/m2 OVC
06:54 8.4 °F 0.8 °F 1012.4 in Calm     59 % 0.0 in 7.0 W/m2 BKN
06:59 8.4 °F 0.8 °F 1012.4 in Calm     59 % 0.0 in 14.0 W/m2 BKN
07:04 8.4 °F 0.8 °F 1012.4 in Calm     59 % 0.0 in 19.0 W/m2 BKN
07:09 8.4 °F 0.8 °F 1012.4 in Calm     59 % 0.0 in 26.0 W/m2 BKN
07:14 8.5 °F 0.9 °F 1012.4 in Calm     59 % 0.0 in 40.0 W/m2 BKN
07:19 8.6 °F 1.1 °F 1012.8 in Calm     59 % 0.0 in 46.0 W/m2 SCT
07:20 8.6 °F 1.1 °F 1012.8 in Calm     59 % 0.0 in 46.0 W/m2 SCT
07:25 8.7 °F 1.2 °F 1012.8 in Calm     59 % 0.0 in 49.0 W/m2 SCT
07:30 8.8 °F 1.2 °F 1012.8 in Calm     59 % 0.0 in 54.0 W/m2 SCT
07:35 8.9 °F 1.3 °F 1012.8 in Calm     59 % 0.0 in 58.0 W/m2 SCT
07:40 9.0 °F 1.2 °F 1012.8 in Calm     58 % 0.0 in 65.0 W/m2 SCT
07:45 9.2 °F 1.6 °F 1012.8 in Calm     59 % 0.0 in 69.0 W/m2 FEW
07:50 9.4 °F 1.6 °F 1012.8 in Calm     58 % 0.0 in 77.0 W/m2 FEW
07:55 9.6 °F 1.4 °F 1012.8 in Calm     57 % 0.0 in 90.0 W/m2 FEW
08:00 9.8 °F 1.4 °F 1012.8 in Calm     56 % 0.0 in 100.0 W/m2 CLR
08:05 10.0 °F 1.6 °F 1012.8 in Calm     56 % 0.0 in 111.0 W/m2 CLR
08:10 10.3 °F 1.9 °F 1012.4 in Calm     56 % 0.0 in 132.0 W/m2 CLR
08:15 10.7 °F 1.7 °F 1012.4 in Calm     54 % 0.0 in 148.0 W/m2 CLR
08:20 11.1 °F 2.3 °F 1012.4 in Calm     55 % 0.0 in 149.0 W/m2 CLR
08:25 11.3 °F 2.1 °F 1012.4 in Calm     53 % 0.0 in 162.0 W/m2 CLR
08:30 11.6 °F 2.3 °F 1012.4 in Calm     53 % 0.0 in 141.0 W/m2 CLR
08:35 11.8 °F 2.3 °F 1012.4 in Calm     52 % 0.0 in 211.0 W/m2 CLR
08:40 12.2 °F 2.3 °F 1012.1 in Calm     51 % 0.0 in 216.0 W/m2 CLR
08:45 12.5 °F 2.3 °F 1012.1 in Calm     50 % 0.0 in 172.0 W/m2 CLR
08:50 12.8 °F 2.4 °F 1012.1 in Calm     49 % 0.0 in 253.0 W/m2 CLR
08:55 13.2 °F 2.7 °F 1012.1 in Calm     49 % 0.0 in 283.0 W/m2 CLR
09:00 13.7 °F 2.9 °F 1012.1 in Calm     48 % 0.0 in 318.0 W/m2 CLR
09:05 14.3 °F 3.4 °F 1012.1 in Calm     48 % 0.0 in 369.0 W/m2 CLR
09:10 14.9 °F 3.1 °F 1012.1 in Calm     45 % 0.0 in 383.0 W/m2 CLR
09:15 15.3 °F 3.1 °F 1012.1 in Calm     44 % 0.0 in 309.0 W/m2 CLR
09:20 15.5 °F 3.3 °F 1012.1 in Calm     44 % 0.0 in 394.0 W/m2 CLR
09:25 15.7 °F 3.2 °F 1012.1 in Calm     43 % 0.0 in 332.0 W/m2 CLR
09:30 16.1 °F 3.4 °F 1011.7 in Calm     43 % 0.0 in 373.0 W/m2 CLR
09:35 16.4 °F 3.8 °F 1012.1 in Calm     43 % 0.0 in 258.0 W/m2 CLR
09:40 16.9 °F 4.2 °F 1011.7 in Calm     43 % 0.0 in 383.0 W/m2 CLR
09:45 17.3 °F 4.6 °F 1011.7 in Calm     43 % 0.0 in 380.0 W/m2 CLR
09:50 17.6 °F 5.2 °F 1011.7 in Calm     44 % 0.0 in 373.0 W/m2 CLR
09:55 17.9 °F 4.8 °F 1011.7 in Calm     42 % 0.0 in 350.0 W/m2 CLR
10:00 18.2 °F 4.4 °F 1011.7 in Calm     40 % 0.0 in 339.0 W/m2 CLR
10:05 18.3 °F 4.4 °F 1011.7 in Calm     40 % 0.0 in 383.0 W/m2 CLR
10:10 18.3 °F 4.4 °F 1011.7 in Calm     40 % 0.0 in 394.0 W/m2 CLR
10:15 18.3 °F 4.5 °F 1011.4 in Calm     40 % 0.0 in 408.0 W/m2 CLR
10:20 18.3 °F 5.2 °F 1011.4 in Calm     42 % 0.0 in 390.0 W/m2 CLR
10:25 18.4 °F 4.9 °F 1011.4 in NE 5.6 mph 5.6 mph 41 % 0.0 in 424.0 W/m2 CLR
10:26 18.4 °F 4.9 °F 1011.4 in NE 3.7 mph 3.7 mph 41 % 0.0 in 424.0 W/m2 CLR
10:31 18.4 °F 5.3 °F 1011.1 in ENE 5.6 mph 5.6 mph 42 % 0.0 in 469.0 W/m2 CLR
10:36 18.6 °F 6.4 °F 1011.1 in NE 5.6 mph 5.6 mph 45 % 0.0 in 394.0 W/m2 CLR
10:41 18.6 °F 6.8 °F 1011.1 in ENE 5.6 mph 5.6 mph 46 % 0.0 in 519.0 W/m2 CLR
10:46 18.7 °F 7.2 °F 1011.1 in ENE 9.3 mph 9.3 mph 47 % 0.0 in 487.0 W/m2 CLR
10:51 18.8 °F 7.3 °F 1011.1 in NE 9.3 mph 9.3 mph 47 % 0.0 in 461.0 W/m2 CLR
10:52 18.8 °F 7.3 °F 1011.1 in NNE 7.4 mph 7.4 mph 47 % 0.0 in 471.0 W/m2 CLR
10:57 18.9 °F 7.3 °F 1011.1 in NE 11.3 mph 11.3 mph 47 % 0.0 in 559.0 W/m2 CLR
11:02 18.9 °F 7.4 °F 1010.7 in NE 9.3 mph 9.3 mph 47 % 0.0 in 496.0 W/m2 CLR
11:07 19.1 °F 7.2 °F 1010.7 in NE 11.1 mph 11.1 mph 46 % 0.0 in 485.0 W/m2 CLR
11:12 19.2 °F 7.0 °F 1010.7 in NE 11.3 mph 11.3 mph 45 % 0.0 in 439.0 W/m2 CLR
11:17 19.4 °F 7.4 °F 1010.7 in NE 7.4 mph 7.4 mph 46 % 0.0 in 668.0 W/m2 CLR
11:22 19.6 °F 7.3 °F 1010.4 in NE 9.3 mph 9.3 mph 45 % 0.0 in 536.0 W/m2 CLR
11:27 19.8 °F 7.6 °F 1010.4 in NNE 8.0 mph 8.0 mph 45 % 0.0 in 680.0 W/m2 CLR
11:32 20.2 °F 7.8 °F 1010.4 in NNE 13.0 mph 13.0 mph 45 % 0.0 in 726.0 W/m2 CLR
11:37 20.4 °F 7.8 °F 1010.4 in NE 11.1 mph 11.1 mph 44 % 0.0 in 791.0 W/m2 CLR
11:42 20.7 °F 8.0 °F 1010.4 in NE 9.3 mph 9.3 mph 44 % 0.0 in 814.0 W/m2 CLR
11:47 20.8 °F 7.8 °F 1010.4 in NE 13.0 mph 13.0 mph 43 % 0.0 in 800.0 W/m2 CLR
11:52 21.0 °F 7.6 °F 1010.0 in NE 9.3 mph 9.3 mph 42 % 0.0 in 856.0 W/m2 CLR
11:57 21.2 °F 7.7 °F 1010.0 in North 14.8 mph 14.8 mph 42 % 0.0 in 846.0 W/m2 CLR
12:02 21.4 °F 7.9 °F 1010.0 in NE 11.3 mph 11.4 mph 42 % 0.0 in 831.0 W/m2 CLR
12:07 21.5 °F 8.4 °F 1010.0 in NNE 9.7 mph 9.7 mph 43 % 0.0 in 805.0 W/m2 CLR
12:13 21.6 °F 8.2 °F 1010.0 in NNE 11.3 mph 11.3 mph 42 % 0.0 in 766.0 W/m2 CLR
12:18 21.6 °F 7.8 °F 1009.7 in NNE 12.9 mph 12.9 mph 41 % 0.0 in 710.0 W/m2 CLR
12:23 21.9 °F 7.7 °F 1010.0 in NNE 11.1 mph 11.1 mph 40 % 0.0 in 701.0 W/m2 CLR
12:28 22.1 °F 8.6 °F 1009.7 in NNE 7.4 mph 7.4 mph 42 % 0.0 in 759.0 W/m2 CLR
12:33 22.3 °F 9.1 °F 1009.7 in ENE 11.3 mph 11.3 mph 43 % 0.0 in 714.0 W/m2 CLR
12:38 22.4 °F 9.6 °F 1009.4 in ENE 14.8 mph 14.8 mph 44 % 0.0 in 886.0 W/m2 CLR
12:43 22.7 °F 10.4 °F 1009.4 in ENE 20.9 mph 20.9 mph 46 % 0.0 in 944.0 W/m2 CLR
12:48 23.0 °F 10.1 °F 1009.0 in ENE 7.4 mph 7.4 mph 44 % 0.0 in 918.0 W/m2 CLR
12:53 22.8 °F 8.9 °F 1009.0 in ENE 11.1 mph 11.1 mph 41 % 0.0 in 833.0 W/m2 CLR
12:58 23.0 °F 8.3 °F 1009.0 in NE 18.5 mph 18.5 mph 39 % 0.0 in 977.0 W/m2 CLR
13:03 23.2 °F 7.7 °F 1009.0 in ENE 11.1 mph 11.1 mph 37 % 0.0 in 851.0 W/m2 CLR
13:08 23.2 °F 7.7 °F 1008.7 in East 14.8 mph 14.8 mph 37 % 0.0 in 847.0 W/m2 CLR
13:13 23.1 °F 9.1 °F 1008.7 in ESE 16.7 mph 16.7 mph 41 % 0.0 in 962.0 W/m2 CLR
13:18 23.1 °F 8.0 °F 1008.7 in East 12.9 mph 12.9 mph 38 % 0.0 in 1074.0 W/m2 CLR
13:23 23.4 °F 8.7 °F 1008.7 in NNE 11.1 mph 11.1 mph 39 % 0.0 in 800.0 W/m2 CLR
13:28 23.7 °F 8.9 °F 1008.7 in ENE 7.4 mph 7.4 mph 39 % 0.0 in 777.0 W/m2 CLR
13:33 23.9 °F 9.1 °F 1008.4 in ENE 8.0 mph 8.0 mph 39 % 0.0 in 930.0 W/m2 CLR
13:38 24.1 °F 10.0 °F 1008.4 in ENE 13.0 mph 13.0 mph 41 % 0.0 in 923.0 W/m2 CLR
13:43 23.9 °F 10.2 °F 1008.4 in ESE 7.4 mph 7.4 mph 42 % 0.0 in 923.0 W/m2 CLR
13:48 23.8 °F 10.2 °F 1008.0 in ESE 13.0 mph 13.0 mph 42 % 0.0 in 921.0 W/m2 CLR
13:53 23.9 °F 9.8 °F 1008.0 in East 5.6 mph 5.6 mph 41 % 0.0 in 918.0 W/m2 CLR
13:58 24.1 °F 10.3 °F 1008.0 in ENE 14.8 mph 14.8 mph 42 % 0.0 in 919.0 W/m2 CLR
14:03 24.3 °F 10.9 °F 1008.0 in NE 18.5 mph 18.5 mph 43 % 0.0 in 919.0 W/m2 CLR
14:08 24.4 °F 11.0 °F 1007.7 in NE 11.1 mph 11.1 mph 43 % 0.0 in 928.0 W/m2 CLR
14:13 24.6 °F 10.4 °F 1007.7 in NE 19.3 mph 19.3 mph 41 % 0.0 in 844.0 W/m2 CLR
14:18 24.4 °F 10.3 °F 1007.7 in NE 11.1 mph 11.1 mph 41 % 0.0 in 846.0 W/m2 CLR
14:23 24.7 °F 10.2 °F 1007.7 in East 9.7 mph 9.7 mph 40 % 0.0 in 935.0 W/m2 CLR
14:28 24.7 °F 10.6 °F 1007.3 in NNE 14.8 mph 14.8 mph 41 % 0.0 in 939.0 W/m2 CLR
14:33 24.7 °F 10.6 °F 1007.3 in NNE 13.0 mph 13.0 mph 41 % 0.0 in 928.0 W/m2 CLR
14:38 24.8 °F 10.7 °F 1007.3 in NNE 13.0 mph 13.0 mph 41 % 0.0 in 956.0 W/m2 CLR
14:43 24.6 °F 11.6 °F 1007.3 in NE 11.1 mph 11.1 mph 44 % 0.0 in 232.0 W/m2 CLR
14:48 24.5 °F 11.8 °F 1007.3 in East 13.0 mph 13.0 mph 45 % 0.0 in 940.0 W/m2 CLR
14:53 24.4 °F 11.7 °F 1007.0 in ESE 14.5 mph 14.5 mph 45 % 0.0 in 905.0 W/m2 CLR
14:58 24.3 °F 12.2 °F 1007.0 in East 16.7 mph 16.7 mph 47 % 0.0 in 904.0 W/m2 CLR
15:03 24.5 °F 12.4 °F 1006.7 in ENE 17.7 mph 17.7 mph 47 % 0.0 in 905.0 W/m2 CLR
15:08 24.5 °F 12.4 °F 1006.7 in East 11.1 mph 11.1 mph 47 % 0.0 in 863.0 W/m2 CLR
15:13 24.8 °F 12.7 °F 1006.3 in East 13.0 mph 13.0 mph 47 % 0.0 in 860.0 W/m2 CLR
15:18 24.9 °F 13.1 °F 1006.3 in East 16.7 mph 16.7 mph 48 % 0.0 in 856.0 W/m2 CLR
15:23 24.9 °F 13.1 °F 1006.3 in ENE 13.0 mph 13.0 mph 48 % 0.0 in 842.0 W/m2 CLR
15:28 24.8 °F 13.4 °F 1006.0 in ESE 20.4 mph 20.4 mph 49 % 0.0 in 842.0 W/m2 CLR
15:33 24.8 °F 13.4 °F 1005.6 in East 20.4 mph 20.4 mph 49 % 0.0 in 831.0 W/m2 CLR
15:38 24.5 °F 13.4 °F 1005.6 in ESE 20.4 mph 20.4 mph 50 % 0.0 in 823.0 W/m2 CLR
15:43 24.4 °F 13.3 °F 1005.6 in ESE 16.7 mph 16.7 mph 50 % 0.0 in 817.0 W/m2 CLR
15:48 24.3 °F 13.2 °F 1005.6 in East 18.5 mph 18.5 mph 50 % 0.0 in 816.0 W/m2 CLR
15:53 24.4 °F 13.3 °F 1005.3 in ESE 16.7 mph 16.7 mph 50 % 0.0 in 803.0 W/m2 CLR
15:58 24.4 °F 13.3 °F 1005.3 in ENE 18.5 mph 18.5 mph 50 % 0.0 in 791.0 W/m2 CLR
16:03 24.6 °F 13.5 °F 1005.3 in ESE 14.8 mph 14.8 mph 50 % 0.0 in 788.0 W/m2 CLR
16:08 24.6 °F 13.4 °F 1005.3 in ENE 16.7 mph 16.7 mph 50 % 0.0 in 779.0 W/m2 CLR
16:13 24.4 °F 13.0 °F 1005.3 in ESE 16.1 mph 16.1 mph 49 % 0.0 in 773.0 W/m2 CLR
16:18 24.4 °F 13.6 °F 1005.3 in SE 14.8 mph 14.8 mph 51 % 0.0 in 726.0 W/m2 CLR
16:23 24.5 °F 13.7 °F 1005.3 in East 18.5 mph 18.5 mph 51 % 0.0 in 749.0 W/m2 CLR
16:28 24.4 °F 13.3 °F 1005.0 in ESE 19.3 mph 19.3 mph 50 % 0.0 in 761.0 W/m2 CLR
16:33 24.3 °F 13.6 °F 1005.0 in SE 20.4 mph 20.4 mph 51 % 0.0 in 754.0 W/m2 CLR
16:38 24.2 °F 13.4 °F 1004.6 in ESE 24.1 mph 24.1 mph 51 % 0.0 in 742.0 W/m2 CLR
16:43 24.1 °F 13.3 °F 1004.6 in East 20.4 mph 20.4 mph 51 % 0.0 in 554.0 W/m2 CLR
16:48 23.8 °F 13.3 °F 1004.6 in East 17.7 mph 17.7 mph 52 % 0.0 in 251.0 W/m2 CLR
16:53 23.3 °F 13.5 °F 1004.6 in ENE 18.5 mph 18.5 mph 54 % 0.0 in 304.0 W/m2 CLR
16:58 23.5 °F 13.4 °F 1004.6 in ESE 16.7 mph 16.7 mph 53 % 0.0 in 294.0 W/m2 CLR
17:03 23.4 °F 13.3 °F 1004.6 in ESE 19.3 mph 19.3 mph 53 % 0.0 in 577.0 W/m2 CLR
17:08 23.6 °F 13.4 °F 1004.3 in ESE 18.5 mph 18.5 mph 53 % 0.0 in 766.0 W/m2 CLR
17:13 23.6 °F 13.4 °F 1004.3 in East 16.7 mph 16.7 mph 53 % 0.0 in 151.0 W/m2 CLR
17:18 23.6 °F 12.8 °F 1004.3 in ESE 14.8 mph 14.8 mph 51 % 0.0 in 146.0 W/m2 CLR
17:23 23.4 °F 12.4 °F 1004.3 in ESE 18.5 mph 18.5 mph 50 % 0.0 in 134.0 W/m2 CLR
17:28 23.3 °F 12.6 °F 1004.3 in ESE 18.5 mph 18.5 mph 51 % 0.0 in 105.0 W/m2 CLR
17:33 23.2 °F 12.5 °F 1004.3 in ESE 16.7 mph 16.7 mph 51 % 0.0 in 86.0 W/m2 CLR
17:38 22.9 °F 12.6 °F 1004.3 in ESE 18.5 mph 18.5 mph 52 % 0.0 in 65.0 W/m2 CLR
17:43 22.7 °F 12.3 °F 1004.3 in East 18.5 mph 18.5 mph 52 % 0.0 in 42.0 W/m2 FEW
17:48 22.5 °F 12.4 °F 1004.3 in East 18.5 mph 18.5 mph 53 % 0.0 in 30.0 W/m2 SCT
17:53 22.3 °F 12.5 °F 1004.3 in ESE 12.9 mph 12.9 mph 54 % 0.0 in 19.0 W/m2 BKN
17:58 22.1 °F 12.3 °F 1004.3 in East 18.5 mph 18.5 mph 54 % 0.0 in 14.0 W/m2 BKN
18:03 21.9 °F 12.2 °F 1004.3 in ESE 16.7 mph 16.7 mph 54 % 0.0 in 11.0 W/m2 BKN
18:08 21.7 °F 12.2 °F 1004.6 in SE 18.5 mph 18.5 mph 55 % 0.0 in 9.0 W/m2 BKN
18:13 21.6 °F 12.4 °F 1004.6 in SE 14.8 mph 14.8 mph 56 % 0.0 in 7.0 W/m2 BKN
18:18 21.4 °F 12.5 °F 1005.0 in SSE 18.5 mph 18.5 mph 57 % 0.0 in 5.0 W/m2 BKN
18:23 21.0 °F 13.2 °F 1005.0 in SSE 11.1 mph 11.1 mph 61 % 0.0 in 5.0 W/m2 BKN
18:29 20.6 °F 12.8 °F 1005.0 in SSE 18.5 mph 18.5 mph 61 % 0.0 in 5.0 W/m2 OVC
18:34 20.2 °F 13.4 °F 1005.3 in SSE 9.3 mph 10.1 mph 65 % 0.0 in 0.0 W/m2 OVC
18:39 19.8 °F 13.4 °F 1005.3 in SSE 20.9 mph 20.9 mph 67 % 0.3 in 0.0 W/m2 RA
18:44 19.3 °F 13.3 °F 1005.0 in SSE 24.1 mph 24.1 mph 68 % 0.5 in 0.0 W/m2 RA
18:49 18.8 °F 13.4 °F 1005.0 in SSE 24.1 mph 24.5 mph 71 % 0.5 in 0.0 W/m2 RA
18:54 18.5 °F 13.2 °F 1004.6 in SE 33.3 mph 33.3 mph 71 % 0.5 in 0.0 W/m2 OVC
18:59 18.2 °F 13.4 °F 1004.6 in SSE 40.7 mph 40.7 mph 74 % 0.5 in 0.0 W/m2 OVC
19:04 17.9 °F 13.4 °F 1004.3 in SSE 44.4 mph 44.4 mph 75 % 0.8 in 5.0 W/m2 RA
19:09 17.8 °F 13.7 °F 1004.3 in South 31.5 mph 31.5 mph 77 % 0.8 in 5.0 W/m2 OVC
19:14 17.7 °F 13.6 °F 1004.3 in SSE 35.2 mph 35.2 mph 77 % 0.8 in 7.0 W/m2 BKN
19:19 17.4 °F 13.7 °F 1003.9 in SSE 31.5 mph 31.5 mph 79 % 0.8 in 9.0 W/m2 BKN
19:24 17.4 °F 13.9 °F 1003.6 in SE 25.9 mph 25.9 mph 80 % 0.8 in 14.0 W/m2 BKN
19:29 17.6 °F 13.9 °F 1003.6 in SE 14.8 mph 14.8 mph 79 % 0.8 in 32.0 W/m2 BKN
19:34 17.6 °F 13.9 °F 1003.9 in WNW 3.7 mph   79 % 0.5 in 42.0 W/m2 BKN
19:39 17.6 °F 13.9 °F 1004.3 in West 5.6 mph 5.6 mph 79 % 0.5 in 35.0 W/m2 BKN
19:44 17.6 °F 13.9 °F 1004.3 in South 25.9 mph 25.9 mph 79 % 0.5 in 26.0 W/m2 BKN
19:49 17.3 °F 13.8 °F 1004.3 in South 6.4 mph 6.4 mph 80 % 0.3 in 25.0 W/m2 BKN
19:54 17.1 °F 13.8 °F 1004.3 in South 18.5 mph 18.5 mph 81 % 0.3 in 21.0 W/m2 BKN
19:59 17.1 °F 13.8 °F 1004.3 in SSE 11.1 mph 11.1 mph 81 % 0.3 in 18.0 W/m2 BKN
20:04 17.2 °F 13.7 °F 1004.6 in South 20.4 mph 20.4 mph 80 % 0.0 in 47.0 W/m2 SCT
20:09 17.4 °F 13.9 °F 1004.6 in SSE 22.2 mph 22.2 mph 80 % 0.0 in 49.0 W/m2 SCT
20:14 17.4 °F 13.8 °F 1004.3 in South 20.4 mph 20.4 mph 79 % 0.0 in 51.0 W/m2 SCT
20:19 17.5 °F 13.8 °F 1004.3 in SSW 20.4 mph 20.4 mph 79 % 0.0 in 54.0 W/m2 SCT
20:24 17.4 °F 13.9 °F 1004.3 in South 19.3 mph 19.3 mph 80 % 0.0 in 44.0 W/m2 BKN
20:29 17.3 °F 14.0 °F 1004.3 in South 18.5 mph 18.5 mph 81 % 0.0 in 16.0 W/m2 BKN
20:34 17.2 °F 13.9 °F 1004.3 in SSE 22.2 mph 22.2 mph 81 % 0.0 in 5.0 W/m2 BKN
20:39 17.2 °F 13.9 °F 1004.3 in South 20.4 mph 20.4 mph 81 % 0.0 in 0.0 W/m2 OVC
20:44 17.5 °F 13.8 °F 1004.6 in SSW 7.4 mph 7.4 mph 79 % 0.0 in 0.0 W/m2 OVC
20:49 17.7 °F 13.8 °F 1004.6 in SE 13.0 mph 13.0 mph 78 % 0.0 in 0.0 W/m2 OVC
20:54 17.8 °F 13.7 °F 1004.6 in NNE 5.6 mph   77 % 0.0 in 0.0 W/m2 OVC
20:59 18.0 °F 13.9 °F 1005.0 in South 9.3 mph 9.3 mph 77 % 0.0 in 0.0 W/m2 OVC
21:04 17.9 °F 13.8 °F 1005.0 in SSE 1.6 mph   77 % 0.0 in 0.0 W/m2 OVC
21:09 17.9 °F 14.1 °F 1004.6 in SE 16.7 mph 16.7 mph 78 % 0.3 in 0.0 W/m2 RA
21:14 17.7 °F 14.1 °F 1004.6 in South 20.4 mph 20.4 mph 79 % 0.3 in 0.0 W/m2
21:19 17.3 °F 14.1 °F 1004.3 in South 18.5 mph 18.5 mph 81 % 0.3 in 0.0 W/m2 CLR
21:24 17.2 °F 13.9 °F 1004.3 in SSE 24.1 mph 24.1 mph 81 % 0.3 in 0.0 W/m2 CLR
21:29 17.2 °F 13.9 °F 1004.3 in South 20.4 mph 20.4 mph 81 % 0.3 in 0.0 W/m2 CLR
21:34 17.2 °F 13.9 °F 1004.6 in South 9.3 mph 9.3 mph 81 % 0.3 in 0.0 W/m2 CLR
21:39 17.0 °F 13.9 °F 1004.6 in SSE 5.6 mph   82 % 0.3 in 0.0 W/m2 CLR
21:44 16.9 °F 13.8 °F 1005.0 in ENE 1.9 mph 3.1 mph 82 % 0.3 in 0.0 W/m2 CLR
21:49 16.8 °F 13.7 °F 1005.0 in SE 11.1 mph 11.1 mph 82 % 0.3 in 0.0 W/m2 CLR
21:54 16.8 °F 13.7 °F 1005.3 in East 6.4 mph 6.4 mph 82 % 0.3 in 0.0 W/m2 CLR
21:59 16.9 °F 13.8 °F 1005.3 in Calm     82 % 0.3 in 0.0 W/m2 CLR
22:04 16.9 °F 13.6 °F 1006.0 in Calm     81 % 0.3 in 0.0 W/m2 CLR
22:09 17.0 °F 13.5 °F 1006.0 in Calm     80 % 0.0 in 0.0 W/m2 CLR
22:14 17.1 °F 13.6 °F 1006.0 in NNE 9.3 mph 9.3 mph 80 % 0.0 in 0.0 W/m2 CLR
22:19 17.0 °F 13.7 °F 1006.0 in North 9.3 mph 9.3 mph 81 % 0.0 in 0.0 W/m2 CLR
22:24 17.1 °F 13.4 °F 1006.3 in ENE 5.6 mph 5.6 mph 79 % 0.0 in 0.0 W/m2 CLR
22:29 17.3 °F 13.4 °F 1006.3 in ESE 5.6 mph 5.6 mph 78 % 0.0 in 0.0 W/m2 CLR
22:34 17.2 °F 13.7 °F 1006.0 in ESE 6.4 mph 6.4 mph 80 % 0.0 in 0.0 W/m2 CLR
22:39 17.0 °F 13.7 °F 1006.7 in Calm     81 % 0.3 in 0.0 W/m2 RA
22:44 16.8 °F 13.7 °F 1006.7 in Calm     82 % 0.3 in 0.0 W/m2 CLR
22:49 16.6 °F 13.7 °F 1007.0 in North 8.0 mph 8.0 mph 83 % 0.3 in 0.0 W/m2 CLR
22:54 16.3 °F 13.8 °F 1007.3 in NNE 13.0 mph 13.0 mph 85 % 0.3 in 0.0 W/m2 CLR
23:00 16.1 °F 13.8 °F 1007.0 in NE 11.1 mph 11.1 mph 86 % 0.3 in 0.0 W/m2 CLR
23:01 16.1 °F 13.8 °F 1007.0 in ENE 9.3 mph 9.3 mph 86 % 0.3 in 0.0 W/m2 CLR
23:06 16.1 °F 13.7 °F 1007.0 in ENE 3.2 mph 3.2 mph 86 % 0.3 in 0.0 W/m2 CLR
23:11 15.9 °F 13.6 °F 1006.7 in ENE 16.7 mph 16.7 mph 86 % 0.3 in 0.0 W/m2 CLR
23:16 15.8 °F 13.7 °F 1006.7 in ENE 3.7 mph   87 % 0.3 in 0.0 W/m2 CLR
23:21 15.7 °F 13.6 °F 1006.7 in ENE 1.9 mph   87 % 0.3 in 0.0 W/m2 CLR
23:26 15.6 °F 13.4 °F 1006.7 in Calm     87 % 0.3 in 0.0 W/m2 CLR
23:31 15.4 °F 13.4 °F 1006.7 in NE 1.9 mph 1.9 mph 88 % 0.3 in 0.0 W/m2 CLR
23:36 15.3 °F 13.3 °F 1007.0 in ENE 9.3 mph 9.3 mph 88 % 0.0 in 0.0 W/m2 CLR
23:41 15.2 °F 13.2 °F 1007.0 in Calm     88 % 0.0 in 0.0 W/m2 CLR
23:46 15.1 °F 13.1 °F 1007.0 in ENE 7.4 mph 7.4 mph 88 % 0.0 in 0.0 W/m2 CLR
23:51 15.1 °F 13.3 °F 1007.0 in Calm     89 % 0.0 in 0.0 W/m2 CLR
23:57 15.0 °F 13.2 °F 1007.0 in NE 11.3 mph 11.3 mph 89 % 0.0 in 0.0 W/m2 CLR
Lo Temps de Massalio
Compliments of Weather Underground - 1.25 mb